Home   Weather   Escuintla   Past weeks

Flag for Guatemala Past Weather in Escuintla, Guatemala — Yesterday and Last 2 Weeks

Now
66 °F

Drizzle. Mostly cloudy.


Feels Like: 66 °F
Forecast: 66 / 89 °F
Wind: No wind

Location: Guatemala Aeropuertola Aurora

Current Time: Sep 27, 2016 at 6:05:03 PM

Latest Report: Sep 27, 2016 at 5:00 PM


Visibility: N/A

Pressure: 30.18 "Hg

Humidity: 94%

Dew Point: 64 °F

Location of EscuintlaLocation

Past Weather in Escuintla — Graph

°F

Escuintla Temperature Yesterday

Maximum temperature yesterday: 75 °F (at 12:00 PM)
Minimum temperature yesterday: 63 °F (at 2:00 AM)
Average temperature yesterday: 67 °F

High & Low Weather Summary for the Past Weeks

 TemperatureHumidityPressure
High79 °F (Sep 17, 2:00 PM)100% (Sep 14, 8:00 PM)30.33 "Hg (Sep 14, 8:00 PM)
Low59 °F (Sep 25, 6:00 AM)57% (Sep 17, 3:00 PM)30.15 "Hg (Sep 22, 3:00 PM)
Average67 °F85%30.26 "Hg
* Reported Sep 12 5:00 PM — Sep 27 5:00 PM, Escuintla, Weather by CustomWeather, © 2016

Note: Actual official high and low records may vary slightly from our data, if they occured in-between our weather recording intervals... More about our weather records

Advertising

Escuintla Weather History for the Previous 24 Hours

Scroll right to see more
 ConditionsComfort  
Time TempWeatherWind HumidityBarometerVisibility
5:00 PM
Tue, Sep 27
66 °FDrizzle. Mostly cloudy.No wind94%30.18 "HgN/A
4:00 PM66 °FThunderstorms. More clouds than sun.No wind94%30.18 "Hg5 mi
3:00 PM66 °FThunderstorms. More clouds than sun.No wind88%30.18 "HgN/A
2:00 PM66 °FThunderstorms. Broken clouds.6 mph94%30.18 "HgN/A
1:00 PM73 °FThunderstorms. Broken clouds.3 mph69%30.21 "HgN/A
12:00 PM73 °FBroken clouds.9 mph74%30.21 "HgN/A
11:00 AM73 °FBroken clouds.12 mph69%30.24 "HgN/A
10:00 AM75 °FBroken clouds.No wind65%30.24 "HgN/A
9:00 AM68 °FBroken clouds.5 mph88%30.27 "HgN/A
8:00 AM66 °FBroken clouds.5 mph88%30.27 "HgN/A
7:00 AM64 °FBroken clouds.No wind94%30.24 "HgN/A
6:00 AM64 °FPartly sunny.No wind88%30.24 "HgN/A
5:00 AM64 °FPassing clouds.No wind88%30.24 "HgN/A
4:00 AM64 °FPassing clouds.No wind94%30.24 "HgN/A
3:00 AM64 °FPassing clouds.No wind94%30.24 "HgN/A
2:00 AM64 °FPartly cloudy.No wind94%30.24 "Hg4 mi
1:00 AM64 °FFog.No wind94%30.24 "Hg2 mi
12:00 AM64 °FFog.5 mph94%30.27 "Hg2 mi
11:00 PM
Mon, Sep 26
64 °FPassing clouds.5 mph94%30.27 "Hg5 mi
10:00 PM64 °FPartly cloudy.5 mph94%30.27 "HgN/A
9:00 PM64 °FPartly cloudy.7 mph94%30.27 "HgN/A
8:00 PM66 °FPartly cloudy.5 mph88%30.24 "HgN/A
7:00 PM66 °FPartly cloudy.7 mph88%30.24 "HgN/A
6:00 PM66 °FPassing clouds.5 mph88%30.21 "HgN/A
Weather by CustomWeather, © 2016

See weather overviewHow to use our weather pages